User: anonymous   Login
Location: Montr�al
(45.5000°N, 73.5830°W)
Time: 04:11:37
(UTC-05:00)
Language:

Cosmos 1151 Rocket - Orbit

View from above orbital plane
View from above orbital plane
View from above satellite
View from above satellite

Ground track
Ground track

The orbit data is extracted from the following two-line orbital elements,

1 11672U 80005B   15027.52718787  .00000478  00000-0  50055-4 0  2429
2 11672 082.5164 181.8970 0015873 333.8074 090.3947 14.87440018893808
Epoch (UTC): 27 January 2015 12:39:09
Eccentricity: 0.0015873
inclination: 82.5164°
perigee height: 595 km
apogee height: 617 km
right ascension of ascending node: 181.8970°
argument of perigee: 333.8074°
revolutions per day: 14.87440018
mean anomaly at epoch: 90.3947°
orbit number at epoch: 89380

The dashed part of the orbit path shows where the satellite is in the earth's shadow,  

DLR